Change the Weather History Date:

Saturday, June 22, 2013

  Actual Average (KJWG) Record (KJWG)
Temperature  
Mean Temperature 82 °F -  
Max Temperature 93 °F 90 °F 100 °F (1984)
Min Temperature 71 °F 66 °F 55 °F (1970)
Cooling Degree Days 17    
Growing Degree Days 32 (Base 50)    
Moisture  
Dew Point 63 °F    
Average Humidity 52    
Maximum Humidity 73    
Minimum Humidity 34    
Precipitation  
Precipitation 0.00 in - - ()
Sea Level Pressure  
Sea Level Pressure 29.91 in    
Wind  
Wind Speed 15 mph (South)    
Max Wind Speed 26 mph    
Max Gust Speed 37 mph    
Visibility 10 miles    
Events      
Averages and records for this station are not official NWS values.
T = Trace of Precipitation, MM = Missing Value Source: NWS Daily Summary

Daily Weather History Graph

Daily Weather History Graph

Search for Another Location

Airport or City:

Trip Planner

Search our weather history database for the weather conditions in past years. The results will help you decide how hot, cold, wet, or windy it might be!

Date:

Astronomy

Jun. 22, 2013 Rise Set
Actual Time 6:19 AM CDT 8:53 PM CDT
Civil Twilight 5:49 AM CDT 9:23 PM CDT
Nautical Twilight 5:12 AM CDT 10:00 PM CDT
Astronomical Twilight 4:31 AM CDT 10:42 PM CDT
Moon 8:12 PM CDT (6/22) 5:31 AM CDT (6/22)
Length of Visible Light 15h 33m
Length of Day
14h 33m
Waxing Gibbous, 99% of the Moon is Illuminated
Jun 22
Waxing Gibbous
Jun 23
Full
Jun 29
Last Quarter
Jul 8
New
Jul 15
First Quarter

Hourly Weather History & Observations

Time (CDT) Temp. Heat Index Dew Point Humidity Pressure Visibility Wind Dir Wind Speed Gust Speed Precip Events Conditions
12:15 AM 80.6 °F 82.7 °F 66.2 °F 61% 29.94 in 10.0 mi SSE 15.0 mph 23.0 mph N/A   Clear
12:35 AM 80.6 °F 82.3 °F 64.4 °F 58% 29.95 in 10.0 mi South 17.3 mph - N/A   Clear
12:55 AM 78.8 °F - 64.4 °F 61% 29.95 in 10.0 mi South 17.3 mph 23.0 mph N/A   Clear
1:15 AM 78.8 °F - 64.4 °F 61% 29.94 in 10.0 mi SSE 15.0 mph 21.9 mph N/A   Clear
1:35 AM 78.8 °F - 64.4 °F 61% 29.94 in 10.0 mi SSE 11.5 mph - N/A   Clear
1:55 AM 78.8 °F - 64.4 °F 61% 29.93 in 10.0 mi SSE 12.7 mph - N/A   Clear
2:15 AM 77.0 °F - 64.4 °F 65% 29.92 in 10.0 mi SSE 12.7 mph - N/A   Clear
2:35 AM 77.0 °F - 62.6 °F 61% 29.92 in 10.0 mi SSE 11.5 mph - N/A   Clear
2:55 AM 77.0 °F - 62.6 °F 61% 29.92 in 10.0 mi SSE 11.5 mph - N/A   Clear
3:15 AM 77.0 °F - 62.6 °F 61% 29.92 in 10.0 mi South 11.5 mph - N/A   Clear
3:35 AM 75.2 °F - 62.6 °F 65% 29.92 in 10.0 mi South 10.4 mph - N/A   Clear
3:55 AM 75.2 °F - 62.6 °F 65% 29.92 in 10.0 mi SSE 9.2 mph - N/A   Clear
4:15 AM 73.4 °F - 62.6 °F 69% 29.92 in 10.0 mi South 9.2 mph - N/A   Clear
4:35 AM 73.4 °F - 62.6 °F 69% 29.93 in 10.0 mi South 10.4 mph - N/A   Clear
4:55 AM 73.4 °F - 62.6 °F 69% 29.93 in 10.0 mi South 10.4 mph - N/A   Clear
5:15 AM 73.4 °F - 62.6 °F 69% 29.94 in 10.0 mi South 11.5 mph 16.1 mph N/A   Clear
5:35 AM 73.4 °F - 62.6 °F 69% 29.94 in 10.0 mi SSE 10.4 mph - N/A   Clear
5:55 AM 73.4 °F - 62.6 °F 69% 29.95 in 10.0 mi South 11.5 mph - N/A   Clear
6:15 AM 73.4 °F - 62.6 °F 69% 29.96 in 10.0 mi SSE 12.7 mph - N/A   Clear
6:35 AM 71.6 °F - 62.6 °F 73% 29.96 in 10.0 mi SSE 11.5 mph 16.1 mph N/A   Clear
6:55 AM 71.6 °F - 62.6 °F 73% 29.96 in 10.0 mi SSE 10.4 mph 16.1 mph N/A   Clear
7:15 AM 73.4 °F - 62.6 °F 69% 29.96 in 10.0 mi South 11.5 mph - N/A   Clear
7:35 AM 73.4 °F - 62.6 °F 69% 29.96 in 10.0 mi South 12.7 mph 20.7 mph N/A   Clear
7:55 AM 75.2 °F - 62.6 °F 65% 29.96 in 7.0 mi South 15.0 mph 20.7 mph N/A   Clear
8:15 AM 77.0 °F - 62.6 °F 61% 29.96 in 10.0 mi South 12.7 mph 21.9 mph N/A   Clear
8:35 AM 78.8 °F - 62.6 °F 57% 29.97 in 10.0 mi South 15.0 mph 18.4 mph N/A   Clear
8:55 AM 78.8 °F - 62.6 °F 57% 29.97 in 10.0 mi South 16.1 mph 19.6 mph N/A   Clear
9:15 AM 80.6 °F 82.3 °F 64.4 °F 58% 29.98 in 10.0 mi South 12.7 mph - N/A   Clear
9:35 AM 82.4 °F 83.9 °F 64.4 °F 54% 29.99 in 10.0 mi South 16.1 mph 25.3 mph N/A   Clear
9:55 AM 82.4 °F 83.9 °F 64.4 °F 54% 29.98 in 10.0 mi SSW 19.6 mph 26.5 mph N/A   Clear
10:15 AM 82.4 °F 83.9 °F 64.4 °F 54% 29.98 in 10.0 mi South 17.3 mph 28.8 mph N/A   Clear
10:35 AM 84.2 °F 85.6 °F 64.4 °F 51% 29.98 in 10.0 mi SSW 17.3 mph 25.3 mph N/A   Clear
10:55 AM 86.0 °F 87.3 °F 64.4 °F 48% 29.98 in 10.0 mi South 19.6 mph 27.6 mph N/A   Clear
11:15 AM 86.0 °F 87.3 °F 64.4 °F 48% 29.97 in 10.0 mi SSW 15.0 mph 24.2 mph N/A   Clear
11:35 AM 86.0 °F 87.3 °F 64.4 °F 48% 29.97 in 10.0 mi SSW 17.3 mph 25.3 mph N/A   Clear
11:55 AM 87.8 °F 89.4 °F 64.4 °F 46% 29.97 in 10.0 mi South 23.0 mph 31.1 mph N/A   Clear
12:15 PM 87.8 °F 88.5 °F 62.6 °F 43% 29.97 in 10.0 mi South 18.4 mph 29.9 mph N/A   Clear
12:35 PM 89.6 °F 91.1 °F 64.4 °F 43% 29.96 in 10.0 mi South 16.1 mph 28.8 mph N/A   Clear
12:55 PM 89.6 °F 90.1 °F 62.6 °F 40% 29.96 in 10.0 mi South 18.4 mph 31.1 mph N/A   Clear
1:15 PM 89.6 °F 90.1 °F 62.6 °F 40% 29.94 in 10.0 mi South 17.3 mph 33.4 mph N/A   Clear
1:35 PM 91.4 °F 91.4 °F 60.8 °F 36% 29.93 in 10.0 mi South 19.6 mph 29.9 mph N/A   Clear
1:55 PM 91.4 °F 91.4 °F 60.8 °F 36% 29.92 in 10.0 mi South 18.4 mph 29.9 mph N/A   Clear
2:15 PM 91.4 °F 91.4 °F 60.8 °F 36% 29.92 in 10.0 mi South 19.6 mph 26.5 mph N/A   Clear
2:35 PM 91.4 °F 91.4 °F 60.8 °F 36% 29.91 in 10.0 mi South 23.0 mph 29.9 mph N/A   Clear
2:55 PM 91.4 °F 91.4 °F 60.8 °F 36% 29.90 in 10.0 mi South 24.2 mph 32.2 mph N/A   Clear
3:15 PM 93.2 °F 93.3 °F 60.8 °F 34% 29.89 in 10.0 mi South 23.0 mph 32.2 mph N/A   Clear
3:35 PM 91.4 °F 91.4 °F 60.8 °F 36% 29.88 in 10.0 mi South 19.6 mph 32.2 mph N/A   Clear
3:55 PM 91.4 °F 92.1 °F 62.6 °F 38% 29.87 in 10.0 mi SSE 20.7 mph 33.4 mph N/A   Clear
4:15 PM 93.2 °F 94.1 °F 62.6 °F 36% 29.87 in 10.0 mi South 23.0 mph 32.2 mph N/A   Clear
4:35 PM 93.2 °F 94.1 °F 62.6 °F 36% 29.87 in 10.0 mi South 21.9 mph 29.9 mph N/A   Clear
4:55 PM 91.4 °F 91.4 °F 60.8 °F 36% 29.86 in 10.0 mi South 26.5 mph 36.8 mph N/A   Clear
5:15 PM 93.2 °F 93.3 °F 60.8 °F 34% 29.86 in 10.0 mi South 26.5 mph 35.7 mph N/A   Clear
5:35 PM 91.4 °F 91.4 °F 60.8 °F 36% 29.85 in 10.0 mi South 24.2 mph 35.7 mph N/A   Clear
5:55 PM 91.4 °F 91.4 °F 60.8 °F 36% 29.85 in 10.0 mi South 23.0 mph 32.2 mph N/A   Clear
6:15 PM 91.4 °F 91.4 °F 60.8 °F 36% 29.84 in 10.0 mi South 18.4 mph 31.1 mph N/A   Clear
6:35 PM 91.4 °F 91.4 °F 60.8 °F 36% 29.84 in 10.0 mi SSE 25.3 mph 33.4 mph N/A   Clear
6:55 PM 91.4 °F 91.4 °F 60.8 °F 36% 29.84 in 10.0 mi SSE 18.4 mph 27.6 mph N/A   Clear
7:15 PM 89.6 °F 90.1 °F 62.6 °F 40% 29.84 in 10.0 mi SSE 18.4 mph 29.9 mph N/A   Clear
7:35 PM 87.8 °F 88.5 °F 62.6 °F 43% 29.84 in 10.0 mi SSE 16.1 mph 25.3 mph N/A   Clear
7:55 PM 87.8 °F 88.5 °F 62.6 °F 43% 29.85 in 10.0 mi SSE 16.1 mph 26.5 mph N/A   Clear
8:15 PM 86.0 °F 86.6 °F 62.6 °F 45% 29.85 in 10.0 mi SSE 16.1 mph 26.5 mph N/A   Clear
8:35 PM 86.0 °F 86.6 °F 62.6 °F 45% 29.85 in 10.0 mi SSE 16.1 mph 23.0 mph N/A   Clear
8:55 PM 84.2 °F 85.0 °F 62.6 °F 48% 29.85 in 10.0 mi SSE 18.4 mph 21.9 mph N/A   Clear
9:15 PM 82.4 °F 82.9 °F 60.8 °F 48% 29.85 in 10.0 mi SSE 17.3 mph 28.8 mph N/A   Clear
9:35 PM 82.4 °F 83.4 °F 62.6 °F 51% 29.85 in 10.0 mi SSE 13.8 mph 21.9 mph N/A   Clear
9:55 PM 80.6 °F 82.3 °F 64.4 °F 58% 29.85 in 10.0 mi SSE 17.3 mph 21.9 mph N/A   Clear
10:15 PM 80.6 °F 82.3 °F 64.4 °F 58% 29.86 in 10.0 mi SSE 15.0 mph 24.2 mph N/A   Clear
10:35 PM 80.6 °F 82.3 °F 64.4 °F 58% 29.87 in 10.0 mi SSE 15.0 mph 25.3 mph N/A   Clear
10:55 PM 80.6 °F 82.3 °F 64.4 °F 58% 29.88 in 10.0 mi SSE 16.1 mph 23.0 mph N/A   Clear
11:15 PM 80.6 °F 82.3 °F 64.4 °F 58% 29.88 in 10.0 mi SSE 18.4 mph 25.3 mph N/A   Clear
11:35 PM 80.6 °F 82.3 °F 64.4 °F 58% 29.88 in 10.0 mi SSE 16.1 mph 24.2 mph N/A   Clear
11:55 PM 80.6 °F 82.3 °F 64.4 °F 58% 29.87 in 10.0 mi SSE 17.3 mph 25.3 mph N/A   Clear